User: anonymous   Login
Location: Unspecified
(0.0000°N, 0.0000°E)
Time: 14:25:16
(UTC+00:00)
Language:

EUTE 9B - Orbit

View from above orbital plane
View from above orbital plane
View from above satellite
View from above satellite

Ground track
Ground track

The orbit data is extracted from the following two-line orbital elements,

1 41310U 16005A   21174.87753380  .00000060  00000-0  00000-0 0  9993
2 41310   0.0701  78.4598 0000582 190.8982 327.7794  1.00271122 19872
Epoch (UTC): 23 June 2021 21:03:38
Eccentricity: 0.0000582
inclination: 0.0701°
perigee height: 35784 km
apogee height: 35789 km
right ascension of ascending node: 78.4598°
argument of perigee: 190.8982°
revolutions per day: 1.00271122
mean anomaly at epoch: 327.7794°
orbit number at epoch: 1987

The dashed part of the orbit path shows where the satellite is in the earth's shadow,  

DLR